Weather in Pokrovskoe

Russia / Stavropol Krai     45°58′39″N   41°35′25″E
temp.,
°C
wind,
m/s
gust,
m/s
humid.,
%
clouds,
%
prec.,
mm/h
press.,
hPa
HPBL,
m
27 september, mon
mon2700:00+15w6117599 1.6 1014493
03:00+14wnw498276 1.6 1014377
06:00+11wnw4107698 0.0 1015253
09:00+14nw69570 0.0 1015872
12:00+17wnw68455 0.0 10161612
15:00+18wnw674010 0.0 10151924
18:00+14nw34515 0.0 101663
21:00+12ne23615 0.0 101740
28 september, tue
tue2800:00+11wsw11635 0.0 101710
03:00+10w11669 0.0 101710
06:00+9w116818 0.0 101810
09:00+14nw115152 0.0 1018302
12:00+17n32435 0.0 10191305
15:00+18n233887 0.0 10192190
18:00+15ne355799 0.0 1020199
21:00+13ne486616 0.0 1022271
29 september, wed
wed2900:00+11ne377611 0.0 1023157
03:00+9ne47825 0.0 1023167
06:00+9ne6118499 0.0 1024361
09:00+11ene7963100 0.0 1025683
12:00+14ene775079 0.0 10251189
15:00+15ene6646100 0.0 10241427
18:00+12ne594899 0.0 1025453
21:00+10ne51154100 0.0 1026330
30 september, thu
thu3000:00+10ene5105388 0.0 1026402
03:00+7ne410607 0.0 1027257
06:00+6ne511622 0.0 1028261
09:00+11ene79465 0.0 1029989
12:00+14ene78355 0.0 10291999
15:00+15ene673154 0.0 10282169
18:00+12ene510406 0.0 1029271
21:00+9e375141 0.0 1031152
1 october, fri
fri100:00+7ene412553 0.0 1031311
03:00+7ene512560 0.0 1031290
06:00+6ene512570 0.0 1032266
09:00+11e710390 0.0 1033870
12:00+14e78302 0.0 10321667
15:00+15ene77275 0.0 10311833
18:00+11ene510350 0.0 1031259
21:00+9ene512434 0.0 1032270